Location: Grasslands National Park East Block
(49.0708°N, 106.5295°W)
Time: 03:50:28
(UTC-06:00)

Vanguard 1 - Pass Details

Date: 22 September 2019
Orbit: 653 x 3830 km, 34.3° (Epoch: 14 October)

Event Time Altitude Azimuth Distance (km) Brightness Sun altitude
Rises 08:27:23 0° 276° (W) 7,561 14.0 14.5°
Reaches altitude 10° 08:34:09 10° 267° (W) 6,111 13.6 15.6°
Maximum altitude 08:46:56 26° 221° (SW) 3,812 13.0 17.5°
Drops below altitude 10° 08:55:30 10° 170° (S) 3,971 13.7 18.8°
Sets 08:58:47 0° 157° (SSE) 4,554 14.2 19.3°
